H1 CPF 2 NER 2022 6 29 9 180 01 glonass134 H2 1407501 9134 40315 2022 6 29 0 0 0 2022 7 2 23 45 0 900 1 1 0 0 0 1 H9 10 0 59759 0.00000 0 -21026601.460 14228725.839 -1972775.325 10 0 59759 900.00000 0 -20624960.846 14025712.064 -5125860.172 10 0 59759 1800.00000 0 -19954118.936 13538282.505 -8178836.724 10 0 59759 2700.00000 0 -19063296.141 12741705.396 -11072074.386 10 0 59759 3600.00000 0 -18007600.958 11622851.251 -13749080.354 10 0 59759 4500.00000 0 -16845603.613 10181000.458 -16157620.600 10 0 59759 5400.00000 0 -15636782.751 8428129.837 -18250752.879 10 0 59759 6300.00000 0 -14438955.212 6388665.226 -19987750.335 10 0 59759 7200.00000 0 -13305799.226 4098710.357 -21334896.927 10 0 59759 8100.00000 0 -12284576.744 1604784.811 -22266139.172 10 0 59759 9000.00000 0 -11414151.364 -1037875.328 -22763582.058 10 0 59759 9900.00000 0 -10723385.058 -3767381.940 -22817820.518 10 0 59759 10800.00000 0 -10229979.990 -6517537.367 -22428101.531 10 0 59759 11700.00000 0 -9939812.393 -9220356.587 -21602315.397 10 0 59759 12600.00000 0 -9846784.197 -11808663.678 -20356818.190 10 0 59759 13500.00000 0 -9933196.083 -14218654.846 -18716090.615 10 0 59759 14400.00000 0 -10170623.666 -16392322.343 -16712241.518 10 0 59759 15300.00000 0 -10521257.574 -18279639.851 -14384367.069 10 0 59759 16200.00000 0 -10939649.039 -19840420.512 -11777779.129 10 0 59759 17100.00000 0 -11374786.061 -21045772.677 -8943118.467 10 0 59759 18000.00000 0 -11772411.930 -21879095.349 -5935370.433 10 0 59759 18900.00000 0 -12077488.205 -22336574.516 -2812802.196 10 0 59759 19800.00000 0 -12236698.761 -22427162.203 364158.253 10 0 59759 20700.00000 0 -12200890.212 -22172041.233 3534080.127 10 0 59759 21600.00000 0 -11927346.964 -21603599.732 6635703.488 10 0 59759 22500.00000 0 -11381806.234 -20763959.295 9609106.965 10 0 59759 23400.00000 0 -10540129.211 -19703118.700 12396848.238 10 0 59759 24300.00000 0 -9389558.735 -18476790.571 14945056.796 10 0 59759 25200.00000 0 -7929510.676 -17144020.598 17204459.372 10 0 59759 26100.00000 0 -6171865.283 -15764687.630 19131319.684 10 0 59759 27000.00000 0 -4140744.899 -14396987.636 20688275.640 10 0 59759 27900.00000 0 -1871785.264 -13095005.137 21845058.912 10 0 59759 28800.00000 0 589071.811 -11906472.264 22579083.525 10 0 59759 29700.00000 0 3187217.177 -10870808.072 22875892.304 10 0 59759 30600.00000 0 5861379.626 -10017519.543 22729452.117 10 0 59759 31500.00000 0 8545917.420 -9365031.291 22142291.258 10 0 59759 32400.00000 0 11173303.742 -8919993.591 21125474.868 10 0 59759 33300.00000 0 13676705.062 -8677098.934 19698416.918 10 0 59759 34200.00000 0 15992546.667 -8619416.413 17888530.246 10 0 59759 35100.00000 0 18062959.328 -8719231.618 15730719.147 10 0 59759 36000.00000 0 19838004.988 -8939358.379 13266722.118 10 0 59759 36900.00000 0 21277587.656 -9234868.425 10544315.732 10 0 59759 37800.00000 0 22352968.204 -9555166.736 7616393.696 10 0 59759 38700.00000 0 23047817.874 -9846324.924 4539938.264 10 0 59759 39600.00000 0 23358764.504 -10053573.186 1374904.102 10 0 59759 40500.00000 0 23295407.043 -10123843.751 -1816962.960 10 0 59759 41400.00000 0 22879796.770 -10008255.846 -4973347.899 10 0 59759 42300.00000 0 22145406.769 -9664434.226 -8032603.371 10 0 59759 43200.00000 0 21135633.589 -9058560.131 -10934975.170 10 0 59759 44100.00000 0 19901895.466 -8167065.012 -13623790.048 10 0 59759 45000.00000 0 18501409.130 -6977892.916 -16046580.466 10 0 59759 45900.00000 0 16994741.081 -5491276.211 -18156122.500 10 0 59759 46800.00000 0 15443238.766 -3719990.620 -19911365.339 10 0 59759 47700.00000 0 13906451.914 -1689078.269 -21278233.440 10 0 59759 48600.00000 0 12439654.096 564949.611 -22230285.664 10 0 59759 49500.00000 0 11091569.552 2995396.352 -22749219.077 10 0 59759 50400.00000 0 9902400.927 5547095.205 -22825208.609 10 0 59759 51300.00000 0 8902239.845 8158483.730 -22457077.482 10 0 59759 52200.00000 0 8109925.444 10763949.805 -21652296.778 10 0 59759 53100.00000 0 7532396.518 13296350.798 -20426815.983 10 0 59759 54000.00000 0 7164561.713 15689600.904 -18804729.608 10 0 59759 54900.00000 0 6989690.286 17881219.380 -16817787.981 10 0 59759 55800.00000 0 6980304.181 19814734.543 -14504763.101 10 0 59759 56700.00000 0 7099531.305 21441845.042 -11910682.996 10 0 59759 57600.00000 0 7302860.985 22724250.413 -9085950.100 10 0 59759 58500.00000 0 7540226.256 23635076.869 -6085361.238 10 0 59759 59400.00000 0 7758324.436 24159841.362 -2967048.217 10 0 59759 60300.00000 0 7903078.069 24296916.046 208640.777 10 0 59759 61200.00000 0 7922132.909 24057475.857 3380297.868 10 0 59759 62100.00000 0 7767288.496 23464933.104 6486628.792 10 0 59759 63000.00000 0 7396759.946 22553883.833 9467621.342 10 0 59759 63900.00000 0 6777176.753 21368610.515 12265687.581 10 0 59759 64800.00000 0 5885235.303 19961203.466 14826759.328 10 0 59759 65700.00000 0 4708935.988 18389378.751 17101317.267 10 0 59759 66600.00000 0 3248352.780 16714082.459 19045335.215 10 0 59759 67500.00000 0 1515902.026 14996979.795 20621122.677 10 0 59759 68400.00000 0 -463902.499 13297932.004 21798050.454 10 0 59759 69300.00000 0 -2655200.370 11672564.771 22553145.887 10 0 59759 70200.00000 0 -5012012.753 10170028.092 22871546.448 10 0 59759 71100.00000 0 -7479900.181 8831040.054 22746802.545 10 0 59759 72000.00000 0 -9997984.100 7686295.760 22181022.726 10 0 59759 72900.00000 0 -12501251.194 6755307.976 21184857.072 10 0 59759 73800.00000 0 -14923047.309 6045728.607 19777317.177 10 0 59759 74700.00000 0 -17197659.020 5553180.619 17985434.065 10 0 59759 75600.00000 0 -19262876.488 5261608.814 15843758.375 10 0 59759 76500.00000 0 -21062430.997 5144136.201 13393710.294 10 0 59759 77400.00000 0 -22548204.678 5164391.223 10682790.004 10 0 59759 78300.00000 0 -23682118.733 5278250.744 7763662.573 10 0 59759 79200.00000 0 -24437619.248 5435925.437 4693134.288 10 0 59759 80100.00000 0 -24800696.203 5584298.939 1531040.374 10 0 59759 81000.00000 0 -24770390.962 5669420.452 -1660933.560 10 0 59759 81900.00000 0 -24358769.356 5639043.258 -4820472.075 10 0 59759 82800.00000 0 -23590360.537 5445099.027 -7885866.655 10 0 59759 83700.00000 0 -22501085.093 5046000.230 -10797242.372 10 0 59759 84600.00000 0 -21136718.146 4408670.169 -13497748.210 10 0 59759 85500.00000 0 -19550953.528 3510212.053 -15934685.510 10 0 59760 0.00000 0 -17803152.547 2339144.348 -18060550.553 10 0 59760 900.00000 0 -15955873.184 896147.923 -19833970.607 10 0 59760 1800.00000 0 -14072288.127 -805705.858 -21220511.624 10 0 59760 2700.00000 0 -12213598.706 -2741258.071 -22193345.534 10 0 59760 3600.00000 0 -10436556.751 -4874081.698 -22733761.714 10 0 59760 4500.00000 0 -8791197.846 -7157783.086 -22831514.866 10 0 59760 5400.00000 0 -7318880.653 -9537729.871 -22485003.809 10 0 59760 6300.00000 0 -6050713.112 -11953132.179 -21701279.380 10 0 59760 7200.00000 0 -5006429.385 -14339389.343 -20495883.150 10 0 59760 8100.00000 0 -4193761.890 -16630603.800 -18892521.849 10 0 59760 9000.00000 0 -3608331.628 -18762157.415 -16922585.500 10 0 59760 9900.00000 0 -3234058.298 -20673243.311 -14624520.025 10 0 59760 10800.00000 0 -3044069.879 -22309248.809 -12043067.625 10 0 59760 11700.00000 0 -3002070.806 -23623891.708 -9228390.393 10 0 59760 12600.00000 0 -3064109.129 -24581022.666 -6235094.631 10 0 59760 13500.00000 0 -3180666.794 -25156020.653 -3121174.825 10 0 59760 14400.00000 0 -3298984.291 -25336725.373 53102.578 10 0 59760 15300.00000 0 -3365521.633 -25123869.696 3226354.513 10 0 59760 16200.00000 0 -3328452.435 -24530995.727 6337254.300 10 0 59760 17100.00000 0 -3140086.812 -23583859.189 9325700.809 10 0 59760 18000.00000 0 -2759122.071 -22319347.610 12133962.437 10 0 59760 18900.00000 0 -2152627.406 -20783957.469 14707775.289 10 0 59760 19800.00000 0 -1297679.736 -19031893.190 16997375.930 10 0 59760 20700.00000 0 -182582.174 -17122866.119 18958450.148 10 0 59760 21600.00000 0 1192386.513 -15119683.641 20552980.786 10 0 59760 22500.00000 0 2814724.110 -13085726.985 21749979.348 10 0 59760 23400.00000 0 4659971.080 -11082420.926 22526087.853 10 0 59760 24300.00000 0 6692482.121 -9166798.964 22866039.553 10 0 59760 25200.00000 0 8866674.037 -7389263.920 22762969.264 10 0 59760 26100.00000 0 11128701.094 -5791636.361 22218566.397 10 0 59760 27000.00000 0 13418491.347 -4405571.779 21243066.320 10 0 59760 27900.00000 0 15672061.995 -3251412.782 19855078.333 10 0 59760 28800.00000 0 17824019.548 -2337524.979 18081251.451 10 0 59760 29700.00000 0 19810142.097 -1660145.450 15955782.169 10 0 59760 30600.00000 0 21569936.581 -1203751.369 13519771.544 10 0 59760 31500.00000 0 23049063.807 -941934.579 10820442.199 10 0 59760 32400.00000 0 24201528.671 -838746.177 7910229.006 10 0 59760 33300.00000 0 24991542.027 -850454.845 4845760.330 10 0 59760 34200.00000 0 25394973.862 -927644.439 1686749.623 10 0 59760 35100.00000 0 25400334.502 -1017561.124 -1505180.399 10 0 59760 36000.00000 0 25009240.544 -1066608.973 -4667716.799 10 0 59760 36900.00000 0 24236344.324 -1022886.032 -7739092.962 10 0 59760 37800.00000 0 23108729.084 -838650.612 -10659316.344 10 0 59760 38700.00000 0 21664795.200 -472610.414 -13371361.192 10 0 59760 39600.00000 0 19952685.076 108065.241 -15822300.631 10 0 59760 40500.00000 0 18028314.343 926097.726 -17964354.191 10 0 59760 41400.00000 0 15953093.897 1992887.540 -19755828.937 10 0 59760 42300.00000 0 13791440.461 3307791.244 -21161934.966 10 0 59760 43200.00000 0 11608181.907 4857917.975 -22155459.264 10 0 59760 44100.00000 0 9465967.492 6618454.065 -22717285.244 10 0 59760 45000.00000 0 7422792.252 8553501.470 -22836748.797 10 0 59760 45900.00000 0 5529739.060 10617393.971 -22511825.417 10 0 59760 46800.00000 0 3829031.823 12756434.933 -21749146.405 10 0 59760 47700.00000 0 2352479.504 14910982.871 -20563845.698 10 0 59760 48600.00000 0 1120373.519 17017796.915 -18979242.108 10 0 59760 49500.00000 0 140881.582 19012543.842 -17026364.764 10 0 59760 50400.00000 0 -590039.879 20832362.076 -14743332.474 10 0 59760 51300.00000 0 -1088214.424 22418376.236 -12174600.131 10 0 59760 52200.00000 0 -1380316.629 23718058.418 -9370087.579 10 0 59760 53100.00000 0 -1502487.066 24687339.055 -6384208.297 10 0 59760 54000.00000 0 -1498551.517 25292381.021 -3274816.808 10 0 59760 54900.00000 0 -1417920.686 25510944.757 -102094.886 10 0 59760 55800.00000 0 -1313259.410 25333289.222 3072602.353 10 0 59760 56700.00000 0 -1238023.557 24762572.576 6187919.083 10 0 59760 57600.00000 0 -1243967.751 23814737.087 9183668.578 10 0 59760 58500.00000 0 -1378728.038 22517883.687 12001978.848 10 0 59760 59400.00000 0 -1683580.212 20911162.360 14588393.473 10 0 59760 60300.00000 0 -2191467.260 19043224.037 16892907.929 10 0 59760 61200.00000 0 -2925378.255 16970297.415 18870922.805 10 0 59760 62100.00000 0 -3897146.796 14753969.160 20484096.874 10 0 59760 63000.00000 0 -5106720.066 12458757.868 21701084.644 10 0 59760 63900.00000 0 -6541930.514 10149580.672 22498144.773 10 0 59760 64800.00000 0 -8178781.830 7889215.746 22859607.858 10 0 59760 65700.00000 0 -9982239.999 5735864.372 22778194.239 10 0 59760 66600.00000 0 -11907499.400 3740912.675 22255174.785 10 0 59760 67500.00000 0 -13901674.343 1946985.253 21300370.179 10 0 59760 68400.00000 0 -15905848.518 386371.519 19931986.853 10 0 59760 69300.00000 0 -17857399.349 -920109.229 18176290.624 10 0 59760 70200.00000 0 -19692502.126 -1963755.901 16067122.063 10 0 59760 71100.00000 0 -21348710.339 -2748118.643 13645260.777 10 0 59760 72000.00000 0 -22767504.298 -3288610.056 10957649.030 10 0 59760 72900.00000 0 -23896700.507 -3611609.974 8056488.342 10 0 59760 73800.00000 0 -24692619.151 -3753100.884 4998225.733 10 0 59760 74700.00000 0 -25121916.456 -3756891.493 1842449.314 10 0 59760 75600.00000 0 -25163002.483 -3672504.163 -1349284.715 10 0 59760 76500.00000 0 -24806982.264 -3552816.976 -4514669.518 10 0 59760 77400.00000 0 -24058078.555 -3451562.246 -7591883.877 10 0 59760 78300.00000 0 -22933516.920 -3420790.044 -10520820.988 10 0 59760 79200.00000 0 -21462877.182 -3508406.969 -13244283.492 10 0 59760 80100.00000 0 -19686938.607 -3755897.266 -15709119.138 10 0 59760 81000.00000 0 -17656068.174 -4196325.358 -17867273.001 10 0 59760 81900.00000 0 -15428220.952 -4852706.401 -19676734.321 10 0 59760 82800.00000 0 -13066638.304 -5736815.204 -21102358.598 10 0 59760 83700.00000 0 -10637342.115 -6848484.576 -22116548.738 10 0 59760 84600.00000 0 -8206531.468 -8175422.790 -22699782.429 10 0 59760 85500.00000 0 -5837991.739 -9693557.349 -22840976.390 10 0 59761 0.00000 0 -3590624.850 -11367889.517 -22537681.926 10 0 59761 900.00000 0 -1516202.109 -13153823.547 -21796109.366 10 0 59761 1800.00000 0 342564.844 -14998911.317 -20630983.270 10 0 59761 2700.00000 0 1953560.691 -16844941.274 -19065232.471 10 0 59761 3600.00000 0 3296346.219 -18630281.272 -17129522.958 10 0 59761 4500.00000 0 4362740.573 -20292377.820 -14861644.031 10 0 59761 5400.00000 0 5156884.836 -21770307.241 -12305760.830 10 0 59761 6300.00000 0 5694787.642 -23007272.742 -9511548.490 10 0 59761 7200.00000 0 6003374.898 -23952944.020 -6533225.243 10 0 59761 8100.00000 0 6119086.024 -24565543.009 -3428503.281 10 0 59761 9000.00000 0 6086077.602 -24813590.170 -257477.433 10 0 59761 9900.00000 0 5954111.065 -24677239.901 2918527.313 10 0 59761 10800.00000 0 5776213.790 -24149150.720 6038128.049 10 0 59761 11700.00000 0 5606211.822 -23234854.997 9041054.404 10 0 59761 12600.00000 0 5496237.373 -21952613.456 11869295.833 10 0 59761 13500.00000 0 5494315.052 -20332760.658 14468205.099 10 0 59761 14400.00000 0 5642127.296 -18416568.207 16787538.149 10 0 59761 15300.00000 0 5973052.075 -16254671.991 18782411.758 10 0 59761 16200.00000 0 6510554.821 -13905127.252 20414161.817 10 0 59761 17100.00000 0 7267002.189 -11431170.326 21651086.811 10 0 59761 18000.00000 0 8242948.139 -8898777.810 22469062.779 10 0 59761 18900.00000 0 9426923.777 -6374122.255 22852018.168 10 0 59761 19800.00000 0 10795741.929 -3921027.822 22792259.120 10 0 59761 20700.00000 0 12315306.374 -1598529.903 22290638.025 10 0 59761 21600.00000 0 13941894.911 541361.230 21356560.745 10 0 59761 22500.00000 0 15623865.648 2455600.419 20007830.528 10 0 59761 23400.00000 0 17303717.882 4111670.490 18270329.489 10 0 59761 24300.00000 0 18920423.581 5488702.370 16177541.589 10 0 59761 25200.00000 0 20411933.333 6578104.782 13769924.079 10 0 59761 26100.00000 0 21717752.245 7383675.992 11094137.737 10 0 59761 27000.00000 0 22781477.352 7921191.899 8202149.329 10 0 59761 27900.00000 0 23553188.655 8217486.955 5150222.851 10 0 59761 28800.00000 0 23991591.255 8309066.283 1997819.098 10 0 59761 29700.00000 0 24065815.938 8240307.864 -1193574.480 10 0 59761 30600.00000 0 23756799.754 8061331.784 -4361659.590 10 0 59761 31500.00000 0 23058185.895 7825628.347 -7444562.994 10 0 59761 32400.00000 0 21976702.926 7587547.751 -10382066.248 10 0 59761 33300.00000 0 20532005.909 7399760.304 -13116802.990 10 0 59761 34200.00000 0 18755985.510 7310797.475 -15595398.081 10 0 59761 35100.00000 0 16691574.245 7362780.560 -17769524.496 10 0 59761 36000.00000 0 14391100.820 7589435.305 -19596855.847 10 0 59761 36900.00000 0 11914262.956 8014478.100 -21041895.065 10 0 59761 37800.00000 0 9325805.208 8650442.875 -22076662.828 10 0 59761 38700.00000 0 6693000.404 9497998.460 -22681232.767 10 0 59761 39600.00000 0 4083041.259 10545784.752 -22844103.882 10 0 59761 40500.00000 0 1560451.655 11770773.625 -22562404.368 10 0 59761 41400.00000 0 -815374.517 13139138.139 -21841924.538 10 0 59761 42300.00000 0 -2992405.162 14607592.057 -20696980.014 10 0 59761 43200.00000 0 -4927881.132 16125142.060 -19150109.694 10 0 59761 44100.00000 0 -6589829.462 17635178.060 -17231616.013 10 0 59761 45000.00000 0 -7958118.471 19077813.151 -14978957.928 10 0 59761 45900.00000 0 -9025014.038 20392374.898 -12436009.566 10 0 59761 46800.00000 0 -9795217.203 21519943.746 -9652199.711 10 0 59761 47700.00000 0 -10285384.747 22405832.904 -6681549.367 10 0 59761 48600.00000 0 -10523155.726 23001906.874 -3581626.128 10 0 59761 49500.00000 0 -10545727.140 23268642.849 -412435.362 10 0 59761 50400.00000 0 -10398040.108 23176850.076 2764730.793 10 0 59761 51300.00000 0 -10130653.716 22708976.583 5888465.216 10 0 59761 52200.00000 0 -9797396.116 21859949.685 8898416.873 10 0 59761 53100.00000 0 -9452891.220 20637515.843 11736439.705 10 0 59761 54000.00000 0 -9150064.173 19062065.860 14347698.695 10 0 59761 54900.00000 0 -8937729.381 17165952.233 16681713.267 10 0 59761 55800.00000 0 -8858361.337 14992326.098 18693319.284 10 0 59761 56700.00000 0 -8946141.003 12593540.543 20343532.516 10 0 59761 57600.00000 0 -9225359.301 10029184.533 21600297.975 10 0 59761 58500.00000 0 -9709244.802 7363826.776 22439111.360 10 0 59761 59400.00000 0 -10399265.609 4664560.627 22843500.910 10 0 59761 60300.00000 0 -11284936.203 1998449.407 22805360.097 10 0 59761 61200.00000 0 -12344139.473 -570023.909 22325123.885 10 0 59761 62100.00000 0 -13543953.041 -2981398.514 21411783.837 10 0 59761 63000.00000 0 -14841948.103 -5183468.782 20082739.944 10 0 59761 63900.00000 0 -16187909.082 -7133215.955 18363489.954 10 0 59761 64800.00000 0 -17525904.433 -8798357.939 16287159.936 10 0 59761 65700.00000 0 -18796623.526 -10158451.844 13893882.942 10 0 59761 66600.00000 0 -19939882.429 -11205502.080 11230035.890 10 0 59761 67500.00000 0 -20897193.346 -11944047.408 8347347.976 10 0 59761 68400.00000 0 -21614288.734 -12390722.266 5301897.001 10 0 59761 69300.00000 0 -22043492.050 -12573310.126 2153013.002 10 0 59761 70200.00000 0 -22145832.903 -12529328.683 -1037888.931 10 0 59761 71100.00000 0 -21892814.697 -12304207.188 -4208522.762 10 0 59761 72000.00000 0 -21267757.416 -11949134.215 -7296966.969 10 0 59761 72900.00000 0 -20266656.474 -11518668.813 -10242895.159 10 0 59761 73800.00000 0 -18898519.332 -11068218.585 -12988775.521 10 0 59761 74700.00000 0 -17185164.484 -10651494.053 -15481013.362 10 0 59761 75600.00000 0 -15160490.689 -10318049.691 -17671012.555 10 0 59761 76500.00000 0 -12869247.377 -10111017.998 -19516133.639 10 0 59761 77400.00000 0 -10365358.707 -10065134.224 -20980528.970 10 0 59761 78300.00000 0 -7709872.721 -10205136.352 -22035838.368 10 0 59761 79200.00000 0 -4968622.762 -10544608.256 -22661732.085 10 0 59761 80100.00000 0 -2209700.184 -11085314.489 -22846291.395 10 0 59761 81000.00000 0 499155.336 -11817053.743 -22586220.793 10 0 59761 81900.00000 0 3093138.841 -12718035.736 -21886889.312 10 0 59761 82800.00000 0 5512829.219 -13755763.947 -20762201.974 10 0 59761 83700.00000 0 7706403.665 -14888385.393 -19234305.694 10 0 59761 84600.00000 0 9631527.207 -16066449.124 -17333137.017 10 0 59761 85500.00000 0 11256841.059 -17234998.369 -15095821.997 10 0 59762 0.00000 0 12562990.731 -18335907.576 -12565941.259 10 0 59762 900.00000 0 13543154.904 -19310366.559 -9792673.938 10 0 59762 1800.00000 0 14203054.533 -20101406.250 -6829841.108 10 0 59762 2700.00000 0 14560447.210 -20656362.705 -3734862.821 10 0 59762 3600.00000 0 14644128.746 -20929175.548 -567652.071 10 0 59762 4500.00000 0 14492486.585 -20882426.244 2610534.664 10 0 59762 5400.00000 0 14151666.934 -20489031.921 5738268.713 10 0 59762 6300.00000 0 13673433.154 -19733524.835 8755120.815 10 0 59762 7200.00000 0 13112805.267 -18612864.680 11602811.581 10 0 59762 8100.00000 0 12525579.071 -17136750.026 14226320.097 10 0 59762 9000.00000 0 11965828.022 -15327415.523 16574930.819 10 0 59762 9900.00000 0 11483491.545 -13218922.419 18603199.940 10 0 59762 10800.00000 0 11122149.807 -10855970.308 20271824.003 10 0 59762 11700.00000 0 10917077.408 -8292277.433 21548395.124 10 0 59762 12600.00000 0 10893657.124 -5588594.362 22408028.926 10 0 59762 13500.00000 0 11066220.384 -2810430.736 22833853.424 10 0 59762 14400.00000 0 11437363.867 -25586.687 22817349.141 10 0 59762 15300.00000 0 11997772.351 2698411.166 22358533.110 10 0 59762 16200.00000 0 12726557.277 5296864.823 21465981.887 10 0 59762 17100.00000 0 13592099.243 7710346.635 20156691.342 10 0 59762 18000.00000 0 14553361.619 9886926.893 18455773.834 10 0 59762 18900.00000 0 15561622.538 11784094.796 16395996.389 10 0 59762 19800.00000 0 16562554.471 13370292.250 14017166.558 10 0 59762 20700.00000 0 17498565.204 14625995.385 11365375.955 10 0 59762 21600.00000 0 18311302.135 15544297.396 8492114.592 10 0 59762 22500.00000 0 18944213.914 16130966.980 5453272.270 10 0 59762 23400.00000 0 19345060.005 16403978.879 2308046.309 10 0 59762 24300.00000 0 19468260.194 16392535.796 -882222.700 10 0 59762 25200.00000 0 19276982.184 16135622.995 -4055263.219 10 0 59762 26100.00000 0 18744876.273 15680157.393 -7149107.734 10 0 59762 27000.00000 0 17857381.065 15078810.904 -10103324.185 10 0 59762 27900.00000 0 16612542.655 14387602.090 -12860217.508 10 0 59762 28800.00000 0 15021310.883 13663360.467 -15365975.548 10 0 59762 29700.00000 0 13107299.042 12961173.215 -17571735.006 10 0 59762 30600.00000 0 10906016.684 12331924.669 -19434545.134 10 0 59762 31500.00000 0 8463608.145 11820034.485 -20918209.345 10 0 59762 32400.00000 0 5835150.432 11461491.365 -21993988.081 10 0 59762 33300.00000 0 3082582.877 11282265.847 -22641149.543 10 0 59762 34200.00000 0 272356.332 11297168.897 -22847358.413 10 0 59762 35100.00000 0 -2527098.997 11509203.431 -22608896.370 10 0 59762 36000.00000 0 -5247980.973 11909434.575 -21930711.756 10 0 59762 36900.00000 0 -7825689.553 12477382.143 -20826299.215 10 0 59762 37800.00000 0 -10201260.999 13181916.798 -19317413.505 10 0 59762 38700.00000 0 -12323562.422 13982620.136 -17433624.714 10 0 59762 39600.00000 0 -14151157.319 14831549.761 -15211725.034 10 0 59762 40500.00000 0 -15653767.046 15675333.808 -12694999.827 10 0 59762 41400.00000 0 -16813270.332 16457506.034 -9932377.926 10 0 59762 42300.00000 0 -17624202.168 17120983.039 -6977478.251 10 0 59762 43200.00000 0 -18093734.335 17610579.753 -3887571.342 10 0 59762 44100.00000 0 -18241141.100 17875458.176 -722475.703 10 0 59762 45000.00000 0 -18096774.700 17871407.455 2456590.105 10 0 59762 45900.00000 0 -17700595.162 17562860.703 5588178.242 10 0 59762 46800.00000 0 -17100317.037 16924564.961 8611783.726 10 0 59762 47700.00000 0 -16349250.996 15942835.123 11468996.442 10 0 59762 48600.00000 0 -15503930.405 14616339.692 14104612.269 10 0 59762 49500.00000 0 -14621621.546 12956385.337 16467683.420 10 0 59762 50400.00000 0 -13757820.617 10986687.557 18512489.111 10 0 59762 51300.00000 0 -12963841.095 8742635.610 20199409.282 10 0 59762 52200.00000 0 -12284591.272 6270080.159 21495685.611 10 0 59762 53100.00000 0 -11756634.166 3623691.633 22376055.891 10 0 59762 54000.00000 0 -11406610.560 864954.553 22823249.848 10 0 59762 54900.00000 0 -11250091.366 -1940121.864 22828336.651 10 0 59762 55800.00000 0 -11290908.191 -4723484.615 22390916.577 10 0 59762 56700.00000 0 -11520991.532 -7417608.892 21519151.896 10 0 59762 57600.00000 0 -11920725.258 -9958056.316 20229634.573 10 0 59762 58500.00000 0 -12459804.698 -12285914.324 18547091.279 10 0 59762 59400.00000 0 -13098564.462 -14350015.734 16503929.169 10 0 59762 60300.00000 0 -13789722.164 -16108845.869 14139628.955 10 0 59762 61200.00000 0 -14480466.101 -17532056.682 11499995.123 10 0 59762 62100.00000 0 -15114799.686 -18601523.413 8636276.247 10 0 59762 63000.00000 0 -15636043.645 -19311898.021 5604171.512 10 0 59762 63900.00000 0 -15989389.354 -19670634.829 2462742.572 10 0 59762 64800.00000 0 -16124393.639 -19697486.293 -726747.662 10 0 59762 65700.00000 0 -15997307.146 -19423489.742 -3902045.537 10 0 59762 66600.00000 0 -15573134.999 -18889488.034 -7001141.085 10 0 59762 67500.00000 0 -14827339.698 -18144247.615 -9963500.189 10 0 59762 68400.00000 0 -13747111.555 -17242255.104 -12731268.160 10 0 59762 69300.00000 0 -12332150.704 -16241287.665 -15250418.899 10 0 59762 70200.00000 0 -10594926.073 -15199862.215 -17471825.249 10 0 59762 71100.00000 0 -8560399.387 -14174673.591 -19352228.139 10 0 59762 72000.00000 0 -6265225.650 -13218131.893 -20855084.545 10 0 59762 72900.00000 0 -3756464.016 -12376104.439 -21951277.465 10 0 59762 73800.00000 0 -1089853.854 -11685958.297 -22619674.338 10 0 59762 74700.00000 0 1672270.745 -11174985.868 -22847523.882 10 0 59762 75600.00000 0 4463339.950 -10859278.970 -22630684.948 10 0 59762 76500.00000 0 7215081.523 -10743097.268 -21973684.578 10 0 59762 77400.00000 0 9860122.562 -10818755.567 -20889605.911 10 0 59762 78300.00000 0 12334551.616 -11067032.318 -19399809.974 10 0 59762 79200.00000 0 14580335.493 -11458079.721 -17533498.426 10 0 59762 80100.00000 0 16547491.656 -11952794.856 -15327127.288 10 0 59762 81000.00000 0 18195927.931 -12504592.236 -12823684.266 10 0 59762 81900.00000 0 19496875.502 -13061501.798 -10071844.523 10 0 59762 82800.00000 0 20433858.202 -13568503.201 -7125021.896 10 0 59762 83700.00000 0 21003160.596 -13969997.952 -4040334.091 10 0 59762 84600.00000 0 21213778.019 -14212315.615 -877501.707 10 0 59762 85500.00000 0 21086852.988 -14246149.377 2302298.000 99